Voltar ao catálogo

GOES 9

AtivoMeteoGEO
NORAD 23581·PAYLOAD·🇺🇸 United States

Lançado May 23, 1995 de Cape Canaveral Space Force Station

Loading…

TLE

AtualizadoSource: Space-Track

Época: Sep 14, 2026, 03:24 UTC

1 23581U 95025A   26257.14204370 -.00000250  00000-0  00000-0 0  9991
2 23581  14.0413  13.8840 0007060 183.4354 179.7468  0.98801930113644

Acompanhe GOES 9 em tempo real com AllMySat

Download on the App Store